sat.trackr.live / text

‹ back to catalog

STARLINK-31552

NORAD 59356 · 2024-060J

PAYLOAD ACTIVE UNKNOWN

§ Identity

Operator
Country
US
Launch date
2024-03-31
Launch site
AFETR
Launch vehicle
Mass (kg)
RCS (m²)

Purposes: comms

External: N2YO · Heavens-Above · Gunter

§ Orbital elements

Epoch: 2026-05-25T03:46:58.276416Z

Period
94.27 min
Inclination
43.0012°
Eccentricity
0.0001130
Mean motion
15.27575348 rev/d
Perigee alt
482.3 km
Apogee alt
483.8 km
Semi-major
6,861.2 km
B*
-7.7220e-6
RAAN
188.3630°
Arg perigee
271.5851°
Mean anomaly
88.4872°
Rev number
12,175

§ Raw data

STARLINK-315521 59356U 24060J   26145.15761894 -.00000474  00000+0 -77220-5 0  99982 59356  43.0012 188.3630 0001130 271.5851  88.4872 15.27575348121753

JSON: /api/v1/satellites/59356 · /tle

For live sub-satellite position, see the globe view (requires WebGL).

§ Visibility from observer

Set your observer location to see the next 7 days of passes ≥ 10°. The values pass through the URL so the page stays shareable.

No JS? Fill the form by hand. The geolocation button needs JavaScript.